Flag for Germany Weather past 2 weeks in Hattingen, North Rhine-Westphalia, Germany

Now
60 °F

Overcast.


Feels Like: 60 °F
Forecast: 41 / 53 °F
Wind: 3 mph from Southwest

Location: Essen

Current Time: Apr 26, 2015 at 6:12:30 PM

Latest Report: Apr 26, 2015 at 5:00 PM


Visibility: 28 mi

Pressure: 29.68 "Hg

Humidity: 72%

Dew point: 51 °F

Location of HattingenLocation

Historic Weather in Hattingen — Graph

°F

Hattingen temperature yesterday

Maximum temperature yesterday: 61 °F (at 12:00 AM)
Minimum temperature yesterday: 50 °F (at 10:00 AM)
Average temperature yesterday: 55 °F

Past Weeks' High & Low Weather Summary

 TemperatureHumidityPressure
High72 °F (Apr 15, 3:00 PM)100% (Apr 26, 3:00 AM)30.48 "Hg (Apr 26, 3:00 AM)
Low38 °F (Apr 19, 8:00 AM)27% (Apr 21, 5:00 PM)29.68 "Hg (Apr 26, 5:00 PM)
Average52 °F65%30.17 "Hg
* Reported Apr 11 5:00 PM — Apr 26 5:00 PM, Hattingen, Weather by CustomWeather, © 2015

Note: Actual official high and low records may vary slightly from our data, if they occured in-between our weather recording intervals... More about our weather records

Advertising

Hattingen weather history for previous 24 hours

 ConditionsComfort  
Time TempWeatherWind HumidityBarometerVisibility
5:00 PM
Sun, Apr 26
60 °FOvercast.3 mph72%29.68 "Hg28 mi
4:00 PM61 °FOvercast.5 mph68%29.70 "Hg34 mi
3:00 PM59 °FLow clouds.5 mph76%29.72 "Hg25 mi
2:00 PM59 °FLight rain. Low clouds.3 mph76%29.72 "Hg12 mi
1:00 PM60 °FOvercast.5 mph74%29.73 "Hg22 mi
12:00 PM58 °FOvercast.5 mph78%29.74 "Hg16 mi
11:00 AM57 °FOvercast.5 mph83%29.74 "Hg13 mi
10:00 AM56 °FLow clouds.3 mph92%29.74 "Hg7 mi
9:00 AM54 °FLow clouds.5 mph97%29.74 "Hg7 mi
8:00 AM53 °FLow clouds.5 mph99%29.74 "Hg6 mi
7:00 AM52 °FLow clouds.3 mph99%29.73 "Hg7 mi
6:00 AM52 °FOvercast.2 mph99%29.73 "Hg4 mi
5:00 AM52 °FLight rain. Overcast.2 mph99%29.74 "Hg5 mi
4:00 AM51 °FDrizzle. Overcast.2 mph100%29.75 "Hg5 mi
3:00 AM52 °FDrizzle. Low clouds.3 mph100%29.76 "Hg6 mi
2:00 AM52 °FOvercast.3 mph93%29.76 "Hg9 mi
1:00 AM51 °FClear.2 mph96%29.78 "Hg6 mi
12:00 AM52 °FClear.1 mph94%29.77 "Hg6 mi
11:00 PM
Sat, Apr 25
53 °FPassing clouds.1 mph95%29.77 "Hg6 mi
10:00 PM54 °FOvercast.1 mph94%29.78 "Hg7 mi
9:00 PM55 °FOvercast.2 mph89%29.77 "Hg11 mi
8:00 PM56 °FOvercast.2 mph88%29.75 "Hg11 mi
7:00 PM56 °FOvercast.3 mph83%29.75 "Hg14 mi
6:00 PM56 °FLight freezing rain. Low clouds.2 mph89%29.76 "Hg7 mi
Weather by CustomWeather, © 2015

See weather overviewHow to use our weather pages